Welcome to the New NWS' Forecast!
Most changes are behind the scenes, but click here for differences you might notice.

Regional Weather Roundup (RWR)

Issued by Mobile/Pensacola (MOB)

                            
010 
ASUS44 KMOB 201212
RWRMOB
REGIONAL WEATHER ROUNDUP
NATIONAL WEATHER SERVICE MOBILE AL
700 AM CDT MON AUG 20 2018

NOTE: "FAIR" INDICATES FEW OR NO CLOUDS BELOW 12,000 FEET WITH NO
      SIGNIFICANT WEATHER AND/OR OBSTRUCTIONS TO VISIBILITY.

  * THESE STATIONS ARE PART OF THE UNIVERSITY OF SOUTH ALABAMA 
    MESONET AND ARE NOT UNDER NWS OR FAA QUALITY CONTROL. 

ALZ061>064-201300-
COASTAL ALABAMA
  
CITY           SKY/WX    TMP DP  RH WIND       PRES   REMARKS
MOBILE REG APT MOCLDY    78  76  93 S5        30.05R                  
6HR MIN TEMP:  76; 6HR MAX TEMP:  78;                                

BROOKLEY FIELD FAIR      78  77  96 CALM      30.05R                  
6HR MIN TEMP:  76; 6HR MAX TEMP:  79;                                

USA CAMPUS*      N/A     75  75 100 CALM      30.04R                  
DOG RIVER*       N/A     75  75 100 CALM        N/A                   

  
CITY           SKY/WX    TMP DP  RH WIND       PRES   REMARKS
GULF SHORES    FAIR      74  74 100 CALM      30.04R                  

$$

ALZ051>060-201300-
INTERIOR SOUTHWEST AND SOUTH CENTRAL ALABAMA
  
CITY           SKY/WX    TMP DP  RH WIND       PRES   REMARKS
GREENVILLE     CLOUDY    76  73  91 S5        30.04R FOG              
6HR MIN TEMP:  75; 6HR MAX TEMP:  76;                                

EVERGREEN      FAIR      76  74  93 CALM      30.05R                  
6HR MIN TEMP:  75; 6HR MAX TEMP:  76;                                

ATMORE*          N/A    N/A N/A N/A CALM      30.78R                  
ANDALUSIA/OPP  FAIR      76  72  87 CALM      30.06R                  
6HR MIN TEMP:  76; 6HR MAX TEMP:  77;                                

ANDALUSIA*       N/A    N/A N/A N/A CALM      30.06R                  
FLORALA APT    FAIR      75  71  87 CALM      30.07R                  
6HR MIN TEMP:  73; 6HR MAX TEMP:  75;                                

FLORALA*       NOT AVBL                                               

$$

FLZ001>006-201300-
WESTERN FLORIDA PANHANDLE
  
CITY           SKY/WX    TMP DP  RH WIND       PRES   REMARKS
PENSACOLA      FAIR      78  75  90 CALM      30.04R                  
6HR MIN TEMP:  77; 6HR MAX TEMP:  79; 6HR PCP: TRACE;                

NAS PENSACOLA  MOCLDY    78  76  93 CALM      30.03R                  
6HR MIN TEMP:  76; 6HR MAX TEMP:  81; 6HR PCP: TRACE;                

MILTON         MOCLDY    76  76 100 W3        30.05R                  
6HR MIN TEMP:  72; 6HR MAX TEMP:  76;                                

WHTNG S FIELD  MOCLDY    75  75 100 CALM      30.05R                  
6HR MIN TEMP:  72; 6HR MAX TEMP:  75;                                


  
CITY           SKY/WX    TMP DP  RH WIND       PRES   REMARKS
JAY*             N/A    N/A N/A N/A CALM        N/A                   
DUKE FIELD     FAIR      74  74 100 CALM      30.04R                  
CRESTVIEW      FAIR      72  70  93 CALM      30.06R                  
6HR MIN TEMP:  72; 6HR MAX TEMP:  75; 6HR PCP: TRACE;                

VALPARAISO     PTCLDY    77  73  88 CALM      30.03R                  
6HR MIN TEMP:  75; 6HR MAX TEMP:  81;                                

DESTIN         FAIR      83  74  74 CALM      30.04R                  
6HR MIN TEMP:  82; 6HR MAX TEMP:  83;                                


$$

MSZ076-079-201300-
INTERIOR SOUTHEAST MISSISSIPPI
  
CITY           SKY/WX    TMP DP  RH WIND       PRES   REMARKS
LEAKESVILLE*   NOT AVBL                                               
AGRICOLA*        N/A     73  73 100 CALM      30.04R                  

$$

MARINE OBSERVATIONS
  
STATION/POSITION TIME  TEMP    WIND        PRES    WAVE
                       AIR SEA DIR/SP/G            HT/PER
                 (UTC) (F)     (DEG/KT/KT) (MB)    (FT/S)
PETIT BOIS ISLND 1142   82     210/ 10/ 12 1017.8R
GRAND BAY        1030   82     200/  8     1017.0S
KATRINA CUT      1130   83     190/ 14     1017.3R
CEDAR POINT      1130   82     180/ 14     1016.6R
E DAUPHIN ISLAND 1100   82     160/  6/  7 1016.6R
MIDDLE BAY LIGHT 1130   82     170/ 13     1016.6R
USCG MOBILE BAY  1142   77 85  240/  3/  3 1017.0R
STATE DOCKS      1136   79 86              1016.7R
MEAHER PARK      1130   78        CALM     1017.3S
WEEKS BAY        1030   74                 1016.0S
FORT MORGAN      1142   82     230/ 16/ 18 1016.9R
12 S ORANGE BCH  1150   83     220/  8/ 12 1017.3R   1/ 3
PENSACOLA BAY    1142          310/  2/  3   N/A
64 S DAUPHIN ISL 1150      84  190/  8/  8 1017.5R   1/ 4

$$

SELECTED LOCATIONS ACROSS THE REGION
  
CITY           SKY/WX    TMP DP  RH WIND       PRES   REMARKS
NEW ORLEANS    MOCLDY    80  79  96 S5        30.02R                  
GULFPORT       FAIR      83  77  82 SW5       30.02R                  
PASCAGOULA AP  FAIR      77  74  90 CALM      30.03R                  
PASCAGOULA*      N/A     79  77  94 CALM      30.04R                  
HATTIESBURG    FAIR      75  74  96 S3        30.03R                  
LAUREL         FAIR      72  72 100 CALM      30.03R FOG              
MERIDIAN       CLOUDY    76  73  91 S6        30.01S                  
JACKSON        FAIR      74  73  97 S7        29.99S                  
MONTGOMERY     MOCLDY    76  74  93 SE3       30.04R                  
TROY           MOCLDY    74  73  97 CALM      30.06S                  
ASHFORD*         N/A    N/A N/A N/A CALM      30.06R                  
DOTHAN         FAIR      74  72  93 CALM      30.10R                  
PANAMA CITY    FAIR      75  73  93 CALM      30.05R                  

$$